Homer, AK

8:53 PM AKDT on September 15, 2019 (GMT -0800)
Homer

Weather History for PAHO - August, 2019

Change the Weather History Date:

Tuesday, August 20, 2019

  Actual Average Record
Temperature  
Mean Temperature 52 °F -  
Max Temperature 60 °F 60 °F 74 °F (1977)
Min Temperature 46 °F 46 °F 33 °F (1969)
Degree Days  
Heating Degree Days 14    
Growing Degree Days 2 (Base 50)    
Moisture  
Dew Point 43 °F    
Average Humidity 70    
Maximum Humidity 83    
Minimum Humidity 47    
Precipitation  
Precipitation 0.00 in - - ()
Sea Level Pressure  
Sea Level Pressure 29.81 in    
Wind  
Wind Speed 4 mph (West)    
Max Wind Speed 13 mph    
Max Gust Speed -    
Visibility 10 miles    
Events      
Averages and records for this station are not official NWS values.
T = Trace of Precipitation, MM = Missing Value Source: NWS Daily Summary

Daily Weather History Graph

Daily Weather History Graph

Search for Another Location

Airport or City:

Astronomy

Aug. 20, 2019 Rise Set
Actual Time 6:33 AM AKDT 9:43 PM AKDT
Civil Twilight 5:45 AM AKDT 10:31 PM AKDT
Nautical Twilight 4:37 AM AKDT 11:37 PM AKDT
Astronomical Twilight 2:41 AM AKDT 1:42 AM AKDT
Moon 11:23 PM AKDT (8/20) 12:28 PM AKDT (8/20)
Length of Visible Light 16h 45m
Length of Day
15h 09m
Waning Gibbous, 76% of the Moon is Illuminated
Aug 20
Waning Gibbous
Aug 23
Last Quarter
Aug 30
New
Sep 5
First Quarter
Sep 13
Full

Hourly Weather History & Observations

Time (AKDT) Temp. Windchill Dew Point Humidity Pressure Visibility Wind Dir Wind Speed Gust Speed Precip Events Conditions
12:53 AM 50.0 °F - 41.0 °F 71% 29.87 in 10.0 mi Calm Calm - N/A   Overcast
1:53 AM 51.1 °F - 42.1 °F 71% 29.87 in 10.0 mi Calm Calm - N/A   Mostly Cloudy
2:53 AM 50.0 °F - 43.0 °F 77% 29.86 in 10.0 mi Calm Calm - N/A   Mostly Cloudy
3:53 AM 48.9 °F - 41.0 °F 74% 29.85 in 10.0 mi Calm Calm - N/A   Clear
4:53 AM 46.0 °F - 39.9 °F 79% 29.84 in 10.0 mi Calm Calm - N/A   Partly Cloudy
5:53 AM 48.0 °F - 41.0 °F 77% 29.83 in 10.0 mi Calm Calm - N/A   Partly Cloudy
6:53 AM 46.0 °F 44.8 °F 39.9 °F 79% 29.83 in 10.0 mi NE 3.5 mph - N/A   Clear
7:53 AM 48.0 °F - 42.1 °F 80% 29.83 in 10.0 mi NE 3.5 mph - N/A   Partly Cloudy
8:53 AM 50.0 °F - 43.0 °F 77% 29.83 in 10.0 mi NE 3.5 mph - N/A   Partly Cloudy
9:53 AM 54.0 °F - 42.1 °F 64% 29.82 in 10.0 mi NE 4.6 mph - N/A   Overcast
10:53 AM 57.0 °F - 41.0 °F 55% 29.81 in 10.0 mi East 4.6 mph - N/A   Partly Cloudy
11:53 AM 57.9 °F - 37.9 °F 47% 29.81 in 10.0 mi ENE 3.5 mph - N/A   Clear
12:53 PM 57.9 °F - 44.1 °F 60% 29.81 in 10.0 mi West 12.7 mph - N/A   Clear
1:53 PM 55.9 °F - 46.9 °F 72% 29.80 in 10.0 mi West 12.7 mph - N/A   Clear
2:53 PM 55.0 °F - 46.9 °F 74% 29.80 in 10.0 mi West 10.4 mph - N/A   Clear
3:53 PM 57.0 °F - 46.0 °F 67% 29.78 in 10.0 mi West 9.2 mph - N/A   Clear
4:53 PM 57.0 °F - 44.1 °F 62% 29.78 in 10.0 mi West 11.5 mph - N/A   Clear
5:53 PM 57.9 °F - 44.1 °F 60% 29.77 in 10.0 mi West 9.2 mph - N/A   Clear
6:53 PM 57.9 °F - 44.1 °F 60% 29.77 in 10.0 mi West 8.1 mph - N/A   Mostly Cloudy
7:53 PM 55.0 °F - 45.0 °F 69% 29.77 in 10.0 mi WSW 9.2 mph - N/A   Mostly Cloudy
8:53 PM 54.0 °F - 45.0 °F 72% 29.78 in 10.0 mi WSW 9.2 mph - N/A   Overcast
9:53 PM 53.1 °F - 45.0 °F 74% 29.77 in 10.0 mi WSW 8.1 mph - N/A   Overcast
10:53 PM 50.0 °F - 44.1 °F 80% 29.77 in 10.0 mi West 6.9 mph - N/A   Clear
11:53 PM 48.9 °F - 44.1 °F 83% 29.77 in 10.0 mi Calm Calm - N/A   Clear